Location: Hurecourt
(47.9030°N, 6.0653°E)
Time: 10:59:35
(UTC+00:00)

NOSS 2-1 (D) - Pass Details

Date: 14 July 2020
Orbit: 447 x 1756 km, 63.3° (Epoch: 01 August)

Event Time Altitude Azimuth Distance (km) Brightness Sun altitude
Rises 00:29:46 0° 318° (NW) 3,011 7.6 -19.6°
Reaches altitude 10° 00:31:46 10° 318° (NW) 2,233 6.9 -19.6°
Maximum altitude 00:36:54 83° 232° (SW) 925 4.3 -19.4°
Enters shadow 00:43:40 12° 145° (SE) 2,924 6.6 -19.1°
